TimeMST,TemperatureF,Dew PointF,Humidity,Sea Level PressureIn,VisibilityMPH,Wind Direction,Wind SpeedMPH,Gust SpeedMPH,PrecipitationIn,Events,Conditions,WindDirDegrees,DateUTC
12:15 AM,30.2,28.4,93,30.30,10.0,Calm,Calm,-,N/A,,Clear,0,2012-11-20 07:15:00
12:35 AM,30.2,30.2,100,30.30,10.0,Calm,Calm,-,N/A,,Clear,0,2012-11-20 07:35:00
12:55 AM,30.2,30.2,100,30.30,10.0,Calm,Calm,-,N/A,,Clear,0,2012-11-20 07:55:00
1:15 AM,30.2,28.4,93,30.30,10.0,Calm,Calm,-,N/A,,Clear,0,2012-11-20 08:15:00
1:35 AM,28.4,26.6,93,30.30,10.0,Calm,Calm,-,N/A,,Clear,0,2012-11-20 08:35:00
5:15 AM,28.4,26.6,93,30.28,10.0,Calm,Calm,-,N/A,,Clear,0,2012-11-20 12:15:00
5:35 AM,28.4,26.6,93,30.28,10.0,Calm,Calm,-,N/A,,Clear,0,2012-11-20 12:35:00
5:55 AM,28.4,26.6,93,30.28,10.0,Calm,Calm,-,N/A,,Clear,0,2012-11-20 12:55:00
6:15 AM,28.4,26.6,93,30.28,10.0,Calm,Calm,-,N/A,,Clear,0,2012-11-20 13:15:00
6:35 AM,28.4,26.6,93,30.29,10.0,Calm,Calm,-,N/A,,Clear,0,2012-11-20 13:35:00
6:55 AM,28.4,28.4,100,30.28,10.0,Calm,Calm,-,N/A,,Clear,0,2012-11-20 13:55:00
7:15 AM,28.4,26.6,93,30.28,10.0,Calm,Calm,-,N/A,,Clear,0,2012-11-20 14:15:00
7:35 AM,28.4,26.6,93,30.28,10.0,Calm,Calm,-,N/A,,Clear,0,2012-11-20 14:35:00
7:55 AM,28.4,28.4,100,30.29,10.0,Calm,Calm,-,N/A,,Clear,0,2012-11-20 14:55:00
8:15 AM,30.2,30.2,100,30.29,10.0,Calm,Calm,-,N/A,,Clear,0,2012-11-20 15:15:00
8:35 AM,32.0,30.2,93,30.29,10.0,Calm,Calm,-,N/A,,Clear,0,2012-11-20 15:35:00
8:55 AM,32.0,32.0,100,30.29,10.0,Calm,Calm,-,N/A,,Clear,0,2012-11-20 15:55:00
9:15 AM,32.0,32.0,100,30.29,10.0,Calm,Calm,-,N/A,,Clear,0,2012-11-20 16:15:00
9:35 AM,33.8,32.0,93,30.28,10.0,Calm,Calm,-,N/A,,Clear,0,2012-11-20 16:35:00
10:15 AM,39.2,32.0,75,30.27,10.0,Calm,Calm,-,N/A,,Clear,0,2012-11-20 17:15:00
10:35 AM,41.0,33.8,76,30.26,10.0,WSW,4.6,-,N/A,,Clear,250,2012-11-20 17:35:00
11:15 AM,44.6,33.8,66,30.25,10.0,Calm,Calm,-,N/A,,Clear,0,2012-11-20 18:15:00
11:35 AM,46.4,32.0,57,30.23,10.0,Calm,Calm,-,N/A,,Clear,0,2012-11-20 18:35:00
11:55 AM,48.2,33.8,58,30.22,10.0,Calm,Calm,-,N/A,,Clear,0,2012-11-20 18:55:00
12:15 PM,51.8,32.0,47,30.20,10.0,Calm,Calm,-,N/A,,Clear,0,2012-11-20 19:15:00
12:35 PM,53.6,30.2,41,30.18,10.0,SSW,10.4,-,N/A,,Clear,200,2012-11-20 19:35:00
12:55 PM,55.4,26.6,33,30.18,10.0,South,9.2,-,N/A,,Clear,190,2012-11-20 19:55:00
1:15 PM,59.0,28.4,31,30.16,10.0,SSW,5.8,-,N/A,,Clear,200,2012-11-20 20:15:00
1:35 PM,59.0,28.4,31,30.15,10.0,South,5.8,-,N/A,,Clear,190,2012-11-20 20:35:00
1:55 PM,59.0,28.4,31,30.14,10.0,South,4.6,-,N/A,,Clear,180,2012-11-20 20:55:00
2:15 PM,59.0,30.2,34,30.14,10.0,West,5.8,-,N/A,,Clear,260,2012-11-20 21:15:00
2:35 PM,59.0,28.4,31,30.13,10.0,WSW,5.8,-,N/A,,Clear,250,2012-11-20 21:35:00
2:55 PM,59.0,28.4,31,30.13,10.0,WSW,3.5,-,N/A,,Clear,240,2012-11-20 21:55:00
3:15 PM,57.2,28.4,33,30.12,10.0,SW,4.6,-,N/A,,Clear,230,2012-11-20 22:15:00
4:15 PM,53.6,30.2,41,30.13,10.0,East,3.5,-,N/A,,Clear,80,2012-11-20 23:15:00
4:35 PM,51.8,32.0,47,30.13,10.0,Calm,Calm,-,N/A,,Clear,0,2012-11-20 23:35:00
4:55 PM,51.8,32.0,47,30.13,10.0,ESE,3.5,-,N/A,,Clear,110,2012-11-20 23:55:00
5:15 PM,50.0,32.0,50,30.13,10.0,East,5.8,-,N/A,,Clear,100,2012-11-21 00:15:00
5:55 PM,46.4,32.0,57,30.13,10.0,SE,3.5,-,N/A,,Clear,130,2012-11-21 00:55:00
6:15 PM,46.4,32.0,57,30.13,10.0,SE,9.2,-,N/A,,Clear,140,2012-11-21 01:15:00
6:35 PM,48.2,32.0,54,30.13,10.0,SSE,8.1,-,N/A,,Clear,150,2012-11-21 01:35:00
6:55 PM,48.2,32.0,54,30.13,10.0,SSE,9.2,-,N/A,,Clear,160,2012-11-21 01:55:00
7:15 PM,46.4,30.2,53,30.13,10.0,SSE,6.9,-,N/A,,Clear,160,2012-11-21 02:15:00
7:35 PM,46.4,30.2,53,30.13,10.0,SSE,8.1,-,N/A,,Clear,150,2012-11-21 02:35:00
7:55 PM,44.6,30.2,57,30.14,10.0,SSE,8.1,-,N/A,,Clear,160,2012-11-21 02:55:00
8:15 PM,46.4,30.2,53,30.14,10.0,Calm,Calm,-,N/A,,Clear,0,2012-11-21 03:15:00
8:35 PM,42.8,32.0,66,30.14,10.0,Calm,Calm,-,N/A,,Clear,0,2012-11-21 03:35:00
8:55 PM,41.0,32.0,70,30.14,10.0,Calm,Calm,-,N/A,,Clear,0,2012-11-21 03:55:00
9:15 PM,41.0,32.0,70,30.14,10.0,Calm,Calm,-,N/A,,Clear,0,2012-11-21 04:15:00
9:35 PM,39.2,32.0,75,30.13,10.0,Calm,Calm,-,N/A,,Clear,0,2012-11-21 04:35:00
9:55 PM,42.8,32.0,66,30.13,10.0,Calm,Calm,-,N/A,,Clear,0,2012-11-21 04:55:00
10:15 PM,41.0,30.2,65,30.13,10.0,NW,3.5,-,N/A,,Clear,310,2012-11-21 05:15:00
10:35 PM,41.0,30.2,65,30.12,10.0,Calm,Calm,-,N/A,,Clear,0,2012-11-21 05:35:00
10:55 PM,37.4,30.2,75,30.12,10.0,Calm,Calm,-,N/A,,Clear,0,2012-11-21 05:55:00
11:15 PM,37.4,30.2,75,30.12,10.0,Calm,Calm,-,N/A,,Clear,0,2012-11-21 06:15:00
11:35 PM,35.6,30.2,81,30.12,10.0,SW,4.6,-,N/A,,Clear,230,2012-11-21 06:35:00
11:55 PM,37.4,30.2,75,30.12,10.0,Calm,Calm,-,N/A,,Clear,0,2012-11-21 06:55:00